SR6WXP Weather Reports


time (UTC)temp
F
wind
direction
speed
knots
gust
knots
rain 1hr
in
rain 24hr
in
rain mn
in
humidity
%
barometer
mb
20260508054006 50 316 2.6 3.5 0.00 0.00 0.00 30 994.0
20260508053605 50 307 3.5 4.3 0.00 0.00 0.00 30 994.0
20260508053205 50 311 3.5 4.3 0.00 0.00 0.00 30 994.0
20260508052803 50 345 3.5 4.3 0.00 0.00 0.00 30 994.0
20260508052403 50 325 3.5 3.5 0.00 0.00 0.00 30 993.9
20260508052003 50 318 3.5 4.3 0.00 0.00 0.00 30 993.9
20260508051603 50 298 2.6 4.3 0.00 0.00 0.00 30 993.9
20260508051203 50 319 3.5 3.5 0.00 0.00 0.00 30 993.9
20260508050801 50 340 2.6 3.5 0.00 0.00 0.00 30 993.9
20260508050401 50 340 2.6 4.3 0.00 0.00 0.00 30 993.9
20260508050001 49 322 3.5 5.2 0.00 0.00 0.00 30 993.9
20260508045601 49 328 3.5 3.5 0.00 0.00 0.00 30 993.9
20260508045201 49 8 3.5 4.3 0.00 0.00 0.00 30 993.8
20260508044759 49 347 3.5 4.3 0.00 0.00 0.00 30 993.8
20260508044359 49 16 3.5 4.3 0.00 0.00 0.00 30 993.8
20260508043959 49 20 3.5 4.3 0.00 0.00 0.00 30 993.7
20260508043556 49 6 3.5 4.3 0.00 0.00 0.00 30 993.7
20260508043156 50 326 2.6 3.5 0.00 0.00 0.00 30 993.7
20260508042754 50 322 2.6 2.6 0.00 0.00 0.00 29 993.7
20260508042355 50 311 1.7 2.6 0.00 0.00 0.00 29 993.7
20260508041955 50 313 2.6 3.5 0.00 0.00 0.00 29 993.6
20260508041555 50 306 2.6 3.5 0.00 0.00 0.00 29 993.7
20260508041154 50 300 2.6 3.5 0.00 0.00 0.00 29 993.7
20260508040752 50 294 1.7 2.6 0.00 0.00 0.00 29 993.7
20260508040352 50 298 1.7 3.5 0.00 0.00 0.00 29 993.7
20260508035950 50 293 3.5 4.3 0.00 0.00 0.00 29 993.6
20260508035550 50 293 3.5 4.3 0.00 0.00 0.00 29 993.6
20260508035150 50 297 3.5 4.3 0.00 0.00 0.00 29 993.6
20260508034748 50 293 3.5 3.5 0.00 0.00 0.00 29 993.6
20260508034348 50 294 3.5 5.2 0.00 0.00 0.00 29 993.6
20260508033948 50 289 3.5 4.3 0.00 0.00 0.00 29 993.5
20260508033548 50 295 3.5 4.3 0.00 0.00 0.00 29 993.5
20260508033148 50 294 3.5 4.3 0.00 0.00 0.00 29 993.5
20260508032746 49 305 3.5 4.3 0.00 0.00 0.00 29 993.5
20260508032344 49 308 3.5 3.5 0.00 0.00 0.00 29 993.4
20260508031944 49 329 2.6 3.5 0.00 0.00 0.00 30 993.4
20260508031536 49 324 3.5 4.3 0.00 0.00 0.00 30 993.4
20260508031135 49 320 3.5 5.2 0.00 0.00 0.00 30 993.3
20260508030732 49 310 3.5 4.3 0.00 0.00 0.00 29 993.3
20260508030332 49 303 3.5 4.3 0.00 0.00 0.00 29 993.3
20260508025932 49 314 3.5 5.2 0.00 0.00 0.00 30 993.2
20260508025532 49 319 3.5 4.3 0.00 0.00 0.00 29 993.2
20260508025132 49 306 4.3 5.2 0.00 0.00 0.00 29 993.3
20260508024730 49 305 3.5 5.2 0.00 0.00 0.00 29 993.2
20260508024330 49 311 3.5 5.2 0.00 0.00 0.00 29 993.1
20260508023930 49 312 4.3 5.2 0.00 0.00 0.00 30 993.1
20260508023530 50 321 4.3 5.2 0.00 0.00 0.00 30 993.1
20260508023130 50 318 3.5 5.2 0.00 0.00 0.00 30 993.1
20260508022728 50 315 3.5 5.2 0.00 0.00 0.00 29 993.1
20260508022328 50 323 4.3 5.2 0.00 0.00 0.00 29 993.1
20260508021928 50 314 4.3 5.2 0.00 0.00 0.00 29 993.1
20260508021526 50 322 4.3 5.2 0.00 0.00 0.00 29 993.0
20260508021126 50 323 4.3 5.2 0.00 0.00 0.00 29 993.1
20260508020724 50 315 2.6 3.5 0.00 0.00 0.00 29 993.1
20260508020324 50 305 3.5 5.2 0.00 0.00 0.00 29 993.1
20260508015924 50 321 4.3 6.1 0.00 0.00 0.00 29 993.1
20260508015524 50 326 3.5 4.3 0.00 0.00 0.00 29 993.1
20260508015124 50 315 2.6 3.5 0.00 0.00 0.00 29 993.1
20260508014722 50 321 2.6 3.5 0.00 0.00 0.00 29 993.1
20260508014322 50 303 4.3 5.2 0.00 0.00 0.00 29 993.1
20260508013920 50 306 5.2 5.2 0.00 0.00 0.00 29 993.0
20260508013521 50 315 4.3 5.2 0.00 0.00 0.00 29 993.0
20260508013120 50 307 5.2 6.1 0.00 0.00 0.00 29 993.0
20260508012718 50 313 4.3 5.2 0.00 0.00 0.00 29 992.9
20260508012318 50 305 5.2 7.0 0.00 0.00 0.00 29 993.0
20260508011918 50 298 6.1 7.0 0.00 0.00 0.00 28 993.0
20260508011118 51 298 5.2 7.0 0.00 0.00 0.00 29 992.9
20260508010716 51 295 6.1 7.0 0.00 0.00 0.00 29 992.9
20260508010314 51 298 5.2 7.0 0.00 0.00 0.00 29 992.9
20260508005914 51 295 5.2 7.0 0.00 0.00 0.00 29 992.8
20260508005514 51 291 4.3 5.2 0.00 0.00 0.00 29 992.7
20260508005114 51 294 4.3 5.2 0.00 0.00 0.00 29 992.7
20260508004705 51 299 5.2 6.1 0.00 0.00 0.00 29 992.6
20260508004304 51 316 3.5 5.2 0.00 0.00 0.00 29 992.6
20260508003903 51 315 3.5 5.2 0.00 0.00 0.00 29 992.5
20260508003502 51 311 5.2 7.0 0.00 0.00 0.00 29 992.6
20260508003102 51 305 5.2 7.0 0.00 0.00 0.00 29 992.6
20260508002700 51 297 4.3 5.2 0.00 0.00 0.00 29 992.6
20260508002300 51 303 5.2 6.1 0.00 0.00 0.00 29 992.7
20260508001900 51 303 4.3 5.2 0.00 0.00 0.00 29 992.7
20260508001500 51 308 3.5 4.3 0.00 0.00 0.00 29 992.8
20260508001100 51 310 3.5 5.2 0.00 0.00 0.00 29 992.8
20260508000658 51 299 3.5 4.3 0.00 0.00 0.00 29 992.8
20260508000258 51 305 3.5 5.2 0.00 0.00 0.00 29 992.8
20260507235859 51 288 3.5 5.2 0.00 0.00 0.00 29 992.9
20260507235456 52 283 3.5 5.2 0.00 0.00 0.00 29 992.9
20260507235056 52 281 3.5 4.3 0.00 0.00 0.00 29 993.0
20260507234654 52 270 2.6 3.5 0.00 0.00 0.00 29 993.0
20260507234254 52 266 3.5 3.5 0.00 0.00 0.00 29 993.0
20260507233854 52 276 2.6 3.5 0.00 0.00 0.00 29 993.0
20260507233454 52 268 2.6 4.3 0.00 0.00 0.00 29 993.1
20260507233054 52 262 2.6 4.3 0.00 0.00 0.00 29 993.1
20260507232652 52 267 3.5 4.3 0.00 0.00 0.00 29 993.1
20260507232251 52 270 2.6 3.5 0.00 0.00 0.00 29 993.1
20260507231851 51 283 2.6 4.3 0.00 0.00 0.00 29 993.1
20260507231452 51 269 4.3 5.2 0.00 0.00 0.00 29 993.2
20260507231052 51 278 3.5 4.3 0.00 0.00 0.00 29 993.2
20260507230650 51 286 3.5 5.2 0.00 0.00 0.00 29 993.2
20260507230249 51 302 4.3 5.2 0.00 0.00 0.00 29 993.1
20260507225849 51 299 3.5 5.2 0.00 0.00 0.00 29 993.1
20260507225449 51 299 4.3 5.2 0.00 0.00 0.00 29 993.1
20260507225049 51 290 4.3 5.2 0.00 0.00 0.00 29 993.1
20260507224647 51 305 5.2 5.2 0.00 0.00 0.00 29 993.0
20260507224245 51 296 5.2 7.0 0.00 0.00 0.00 29 993.0
20260507223845 51 300 4.3 5.2 0.00 0.00 0.00 29 993.1
20260507223445 51 299 4.3 5.2 0.00 0.00 0.00 29 993.0
20260507223045 51 299 5.2 6.1 0.00 0.00 0.00 29 993.0
20260507222643 52 309 4.3 5.2 0.00 0.00 0.00 29 993.0
20260507222243 52 285 4.3 5.2 0.00 0.00 0.00 29 993.0
20260507221843 52 293 3.5 5.2 0.00 0.00 0.00 29 993.0
20260507221436 52 306 4.3 5.2 0.00 0.00 0.00 29 992.9
20260507221035 52 308 3.5 4.3 0.00 0.00 0.00 29 992.9
20260507220632 52 305 3.5 4.3 0.00 0.00 0.00 28 992.8
20260507220231 52 299 5.2 7.0 0.00 0.00 0.00 28 992.8
20260507215831 52 299 4.3 7.0 0.00 0.00 0.00 28 992.7
20260507215431 52 301 5.2 6.1 0.00 0.00 0.00 28 992.7
20260507215031 52 298 5.2 7.0 0.00 0.00 0.00 28 992.7
20260507214629 52 297 5.2 7.0 0.00 0.00 0.00 28 992.8
20260507214229 52 293 5.2 7.0 0.00 0.00 0.00 28 992.7
20260507213829 52 291 5.2 7.0 0.00 0.00 0.00 28 992.8
20260507213427 52 291 6.1 7.0 0.00 0.00 0.00 28 992.7
20260507213027 52 295 7.0 7.8 0.00 0.00 0.00 28 992.7
20260507212625 52 298 5.2 6.1 0.00 0.00 0.00 28 992.7
20260507212225 52 292 5.2 6.1 0.00 0.00 0.00 28 992.7
20260507211825 52 293 3.5 5.2 0.00 0.00 0.00 29 992.7
20260507211425 52 298 4.3 5.2 0.00 0.00 0.00 29 992.7
20260507211025 52 303 4.3 5.2 0.00 0.00 0.00 29 992.6
20260507210623 52 298 4.3 5.2 0.00 0.00 0.00 29 992.6
20260507210223 52 289 3.5 5.2 0.00 0.00 0.00 29 992.6
20260507205823 52 296 4.3 4.3 0.00 0.00 0.00 29 992.6
20260507205422 52 289 4.3 5.2 0.00 0.00 0.00 29 992.5
20260507204620 52 290 3.5 5.2 0.00 0.00 0.00 29 992.4
20260507204220 52 300 4.3 5.2 0.00 0.00 0.00 29 992.4
20260507203820 52 305 5.2 6.1 0.00 0.00 0.00 29 992.4
20260507203420 52 308 5.2 6.1 0.00 0.00 0.00 29 992.4
20260507203020 52 310 4.3 5.2 0.00 0.00 0.00 29 992.4
20260507202618 52 300 4.3 6.1 0.00 0.00 0.00 29 992.4
20260507202216 52 316 2.6 4.3 0.00 0.00 0.00 29 992.4
20260507201816 52 308 2.6 3.5 0.00 0.00 0.00 29 992.3
20260507201416 52 319 1.7 2.6 0.00 0.00 0.00 29 992.3
20260507201016 52 315 0.9 1.7 0.00 0.00 0.00 29 992.3
20260507200614 51 324 1.7 3.5 0.00 0.00 0.00 29 992.2
20260507195814 51 292 3.5 6.1 0.00 0.00 0.00 29 992.1
20260507195414 51 283 5.2 6.1 0.00 0.00 0.00 29 992.0
20260507195014 51 299 6.1 7.0 0.00 0.00 0.00 29 991.8
20260507194605 51 312 7.0 8.7 0.00 0.00 0.00 29 991.7
20260507194204 51 329 8.7 10.4 0.00 0.00 0.00 29 991.6
20260507193804 52 330 8.7 9.6 0.00 0.00 0.00 29 991.8
20260507193403 52 329 7.8 10.4 0.00 0.00 0.00 29 992.0
20260507193003 52 308 6.1 8.7 0.00 0.00 0.00 29 992.1
20260507192601 52 290 7.0 7.8 0.00 0.00 0.00 29 992.2
20260507192201 53 282 7.0 7.8 0.00 0.00 0.00 29 992.1
20260507191801 52 266 6.1 7.8 0.00 0.00 0.00 29 992.0
20260507191358 52 269 6.1 7.0 0.00 0.00 0.00 29 991.9
20260507190958 52 281 5.2 7.0 0.00 0.00 0.00 29 991.9
20260507190556 52 274 5.2 7.0 0.00 0.00 0.00 29 991.8
20260507190157 52 280 7.0 8.7 0.00 0.00 0.00 29 991.7
20260507185756 53 286 7.8 10.4 0.00 0.00 0.00 29 991.7
20260507185356 53 289 7.8 9.6 0.00 0.00 0.00 29 991.6
20260507184956 53 292 8.7 9.6 0.00 0.00 0.00 29 991.6
20260507184554 53 282 7.0 9.6 0.00 0.00 0.00 29 991.5
20260507184154 53 297 8.7 10.4 0.00 0.00 0.00 29 991.4
20260507183753 53 289 7.8 9.6 0.00 0.00 0.00 28 991.3
20260507183353 53 281 7.8 9.6 0.00 0.00 0.00 28 991.2
20260507182953 54 288 8.7 11.3 0.00 0.00 0.00 28 991.2
20260507182551 54 294 8.7 10.4 0.00 0.00 0.00 28 991.2
20260507182152 54 297 8.7 10.4 0.00 0.00 0.00 28 991.1
20260507181752 54 309 8.7 10.4 0.00 0.00 0.00 28 990.9
20260507181351 54 293 9.6 11.3 0.00 0.00 0.00 28 991.0
20260507180951 54 285 8.7 12.2 0.00 0.00 0.00 29 991.0
20260507180549 54 277 7.8 8.7 0.00 0.00 0.00 28 991.0
20260507180147 55 287 7.8 9.6 0.00 0.00 0.00 28 990.9
20260507175747 55 293 9.6 10.4 0.00 0.00 0.00 28 990.8
20260507175347 55 290 9.6 12.2 0.00 0.00 0.00 28 990.8
20260507174947 55 296 10.4 11.3 0.00 0.00 0.00 28 990.6
20260507174545 56 298 9.6 11.3 0.00 0.00 0.00 28 990.5
20260507174145 56 291 10.4 12.2 0.00 0.00 0.00 28 990.5
20260507173745 56 292 10.4 12.2 0.00 0.00 0.00 29 990.5
20260507172945 56 273 8.7 10.4 0.00 0.00 0.00 28 990.3
20260507172543 57 282 8.7 10.4 0.00 0.00 0.00 29 990.2
20260507172143 57 293 8.7 9.6 0.00 0.00 0.00 29 990.1
20260507171744 57 301 8.7 11.3 0.00 0.00 0.00 29 990.0
20260507171336 57 296 8.7 10.4 0.00 0.00 0.00 29 989.9
20260507170935 58 299 7.8 9.6 0.00 0.00 0.00 29 990.0
20260507170532 58 289 9.6 11.3 0.00 0.00 0.00 29 990.0
20260507170131 58 279 3.5 5.2 0.00 0.00 0.00 29 989.8
20260507165731 58 266 4.3 6.1 0.00 0.00 0.00 29 989.7
20260507165329 58 259 4.3 7.0 0.00 0.00 0.00 29 989.7
20260507164928 58 256 5.2 7.0 0.00 0.00 0.00 29 989.5
20260507164526 58 270 5.2 7.0 0.00 0.00 0.00 29 989.3
20260507164126 58 274 7.0 9.6 0.00 0.00 0.00 29 989.2
20260507163726 58 273 8.7 13.0 0.00 0.00 0.00 29 989.0
20260507163326 58 270 9.6 11.3 0.00 0.00 0.00 29 988.9
20260507162926 59 275 10.4 14.8 0.00 0.00 0.00 29 988.9
20260507162524 59 283 8.7 12.2 0.00 0.00 0.00 29 989.0
20260507162124 60 306 8.7 10.4 0.00 0.00 0.00 29 989.1
20260507161724 61 277 6.1 8.7 0.00 0.00 0.00 28 989.2
20260507161324 61 263 7.8 9.6 0.00 0.00 0.00 96 989.4
20260507160925 62 262 7.8 11.3 0.00 0.00 0.00 93 989.4
20260507160521 62 262 7.0 8.7 0.00 0.00 0.00 89 989.3
20260507160121 63 259 7.0 8.7 0.00 0.00 0.00 86 989.2
20260507155721 63 244 8.7 12.2 0.00 0.00 0.00 83 989.1
20260507155321 63 254 6.1 10.4 0.00 0.00 0.00 82 989.1
20260507154921 63 262 6.1 8.7 0.00 0.00 0.00 82 988.9
20260507154519 63 262 7.0 9.6 0.00 0.00 0.00 81 988.8
20260507154117 63 263 8.7 11.3 0.00 0.00 0.00 81 988.6
20260507153718 63 274 8.7 11.3 0.00 0.00 0.00 80 988.4
20260507153316 64 280 10.4 13.0 0.00 0.00 0.00 78 988.3
20260507152514 64 269 11.3 13.9 0.00 0.00 0.00 76 988.2
20260507152114 65 270 9.6 11.3 0.00 0.00 0.00 75 988.3
20260507151715 65 270 11.3 12.2 0.00 0.00 0.00 73 988.3
20260507151351 66 275 8.7 12.2 0.00 0.00 0.00 70 988.3
20260507151315 65 281 8.7 12.2 0.00 0.00 0.00 72 988.3
20260507150915 66 267 9.6 11.3 0.00 0.00 0.00 71 988.3
20260507150513 66 275 8.7 12.2 0.00 0.00 0.00 70 988.3
20260507150113 67 285 7.0 9.6 0.00 0.00 0.00 68 988.2
20260507145713 67 283 8.7 10.4 0.00 0.00 0.00 66 988.1
20260507145313 68 268 8.7 12.2 0.00 0.00 0.00 65 988.0
20260507144913 68 262 11.3 13.9 0.00 0.00 0.00 63 988.0
20260507144503 67 283 11.3 14.8 0.00 0.00 0.00 62 988.1
20260507144103 67 305 8.7 12.2 0.00 0.00 0.00 63 988.1
20260507143702 68 303 10.4 13.9 0.00 0.00 0.00 63 988.1
20260507143259 68 307 9.6 12.2 0.00 0.00 0.00 64 988.0
20260507142859 68 299 12.2 15.6 0.00 0.00 0.00 63 988.0
20260507142456 68 289 8.7 11.3 0.00 0.00 0.00 62 987.9
20260507142056 68 282 8.7 11.3 0.00 0.00 0.00 62 987.9
20260507141657 68 283 10.4 13.0 0.00 0.00 0.00 62 987.9
20260507141257 68 310 7.8 9.6 0.00 0.00 0.00 63 988.0
20260507140857 68 292 10.4 13.9 0.00 0.00 0.00 64 988.0
20260507140455 68 316 10.4 11.3 0.00 0.00 0.00 64 988.0
20260507140055 68 283 8.7 13.0 0.00 0.00 0.00 63 987.9
20260507135655 68 272 8.7 12.2 0.00 0.00 0.00 64 987.9
20260507135255 68 298 7.8 10.4 0.00 0.00 0.00 64 987.9
20260507134855 68 291 7.8 10.4 0.00 0.00 0.00 64 988.0
20260507134453 68 299 8.7 11.3 0.00 0.00 0.00 64 988.0
20260507133653 68 269 7.0 8.7 0.00 0.00 0.00 64 988.0
20260507133253 67 267 7.0 8.7 0.00 0.00 0.00 64 988.0
20260507132853 67 282 7.8 10.4 0.00 0.00 0.00 65 988.0
20260507132451 67 268 7.8 9.6 0.00 0.00 0.00 64 988.0
20260507132049 68 283 8.7 10.4 0.00 0.00 0.00 64 988.0
20260507131649 68 281 9.6 11.3 0.00 0.00 0.00 64 988.1
20260507131249 69 299 10.4 12.2 0.00 0.00 0.00 62 988.1
20260507130849 69 284 8.7 13.0 0.00 0.00 0.00 61 988.0
20260507130447 69 292 7.8 12.2 0.00 0.00 0.00 58 987.9
20260507130047 69 271 3.5 7.0 0.00 0.00 0.00 58 987.9
20260507125647 69 276 6.1 10.4 0.00 0.00 0.00 58 987.9
20260507125247 68 255 7.0 10.4 0.00 0.00 0.00 60 987.8
20260507124847 68 263 4.3 8.7 0.00 0.00 0.00 61 987.9
20260507124445 68 262 7.0 9.6 0.00 0.00 0.00 62 987.9
20260507124045 67 248 4.3 8.7 0.00 0.00 0.00 62 987.9
20260507123645 67 282 5.2 7.0 0.00 0.00 0.00 63 987.9
20260507123245 67 273 5.2 7.8 0.00 0.00 0.00 63 988.0
20260507122845 67 276 7.0 8.7 0.00 0.00 0.00 65 987.9
20260507122443 67 266 6.1 10.4 0.00 0.00 0.00 65 988.0
20260507122043 67 281 7.0 9.6 0.00 0.00 0.00 65 988.0
20260507121644 68 290 8.7 13.9 0.00 0.00 0.00 65 988.1
20260507121234 68 291 9.6 13.0 0.00 0.00 0.00 65 988.2
20260507120833 68 266 7.0 9.6 0.00 0.00 0.00 65 988.2
20260507120430 68 255 9.6 13.0 0.00 0.00 0.00 64 988.2
20260507120029 68 261 9.6 13.9 0.00 0.00 0.00 63 988.2
20260507115629 68 260 7.0 8.7 0.00 0.00 0.00 61 988.1
20260507115229 68 261 7.0 12.2 0.00 0.00 0.00 61 988.1
20260507114829 68 245 7.0 10.4 0.00 0.00 0.00 59 988.0
20260507114427 68 247 8.7 12.2 0.00 0.00 0.00 58 988.0
20260507114027 68 253 8.7 13.0 0.00 0.00 0.00 58 988.0
20260507113627 68 239 7.8 11.3 0.00 0.00 0.00 57 988.0
20260507113227 68 234 5.2 9.6 0.00 0.00 0.00 57 987.9
20260507112826 68 212 8.7 13.9 0.00 0.00 0.00 56 987.9
20260507112424 68 236 7.0 12.2 0.00 0.00 0.00 59 987.9
20260507112024 68 244 7.0 10.4 0.00 0.00 0.00 60 987.8
20260507111624 68 250 7.8 10.4 0.00 0.00 0.00 60 987.8
20260507111224 68 266 7.8 13.0 0.00 0.00 0.00 61 987.8
20260507110824 68 252 7.8 13.0 0.00 0.00 0.00 60 987.8
20260507110422 68 248 7.8 12.2 0.00 0.00 0.00 60 987.8
20260507110020 68 248 9.6 12.2 0.00 0.00 0.00 61 987.7
20260507105619 68 239 6.1 11.3 0.00 0.00 0.00 60 987.7
20260507105219 68 228 8.7 13.9 0.00 0.00 0.00 61 987.6
20260507104819 67 228 7.0 10.4 0.00 0.00 0.00 60 987.6
20260507104417 67 219 8.7 13.9 0.00 0.00 0.00 60 987.6
20260507104017 67 211 7.8 11.3 0.00 0.00 0.00 61 987.6
20260507103616 67 197 7.0 10.4 0.00 0.00 0.00 62 987.6
20260507103217 67 193 7.8 12.2 0.00 0.00 0.00 63 987.6
20260507102817 67 238 8.7 12.2 0.00 0.00 0.00 62 987.7
20260507102415 67 205 6.1 9.6 0.00 0.00 0.00 64 987.7
20260507102015 66 236 7.8 13.0 0.00 0.00 0.00 64 987.6
20260507101214 66 203 4.3 9.6 0.00 0.00 0.00 67 987.6
20260507100814 66 203 6.1 12.2 0.00 0.00 0.00 69 987.7
20260507100412 66 223 6.1 9.6 0.00 0.00 0.00 69 987.7
20260507100012 66 214 7.8 11.3 0.00 0.00 0.00 70 987.7
20260507095210 66 198 3.5 8.7 0.00 0.00 0.00 71 987.7
20260507094810 66 237 7.8 12.2 0.00 0.00 0.00 72 987.6
20260507094400 66 225 8.7 11.3 0.00 0.00 0.00 71 987.6
20260507093959 66 222 7.0 9.6 0.00 0.00 0.00 70 987.6
20260507093559 66 222 6.1 8.7 0.00 0.00 0.00 71 987.5
20260507093158 66 213 6.1 7.8 0.00 0.00 0.00 71 987.5
20260507092758 66 218 5.2 8.7 0.00 0.00 0.00 70 987.5
20260507092356 66 208 5.2 7.8 0.00 0.00 0.00 71 987.5
20260507091956 66 236 2.6 7.0 0.00 0.00 0.00 72 987.4
20260507091556 65 214 5.2 7.0 0.00 0.00 0.00 71 987.4
20260507091156 65 225 4.3 8.7 0.00 0.00 0.00 72 987.3
20260507090756 65 249 2.6 4.3 0.00 0.00 0.00 73 987.3
20260507090354 65 268 4.3 7.0 0.00 0.00 0.00 73 987.3
20260507085954 65 255 5.2 7.0 0.00 0.00 0.00 73 987.2
20260507085554 65 250 7.0 9.6 0.00 0.00 0.00 71 987.2
20260507085154 65 248 5.2 7.8 0.00 0.00 0.00 71 987.2
20260507084754 65 242 6.1 9.6 0.00 0.00 0.00 71 987.1
20260507084352 65 226 4.3 7.0 0.00 0.00 0.00 71 987.1
20260507083950 65 201 2.6 4.3 0.00 0.00 0.00 72 987.1
20260507083550 65 233 6.1 11.3 0.00 0.00 0.00 71 987.1
20260507082750 65 228 3.5 6.1 0.00 0.00 0.00 72 987.0
20260507082348 65 237 3.5 5.2 0.00 0.00 0.00 73 986.9
20260507081948 65 251 4.3 7.0 0.00 0.00 0.00 73 986.9
20260507081548 65 263 3.5 6.1 0.00 0.00 0.00 73 986.8
20260507081148 65 254 3.5 6.1 0.00 0.00 0.00 73 986.8
20260507080748 65 251 3.5 5.2 0.00 0.00 0.00 73 986.7
20260507080346 64 238 2.6 5.2 0.00 0.00 0.00 74 986.7
20260507075947 64 167 3.5 5.2 0.00 0.00 0.00 75 986.7
20260507075547 64 234 3.5 6.1 0.00 0.00 0.00 75 986.7
20260507075147 64 231 1.7 4.3 0.00 0.00 0.00 75 986.6
20260507074345 64 210 3.5 7.0 0.00 0.00 0.00 76 986.5
20260507073945 63 282 2.6 5.2 0.00 0.00 0.00 78 986.5
20260507073545 63 213 0.9 2.6 0.00 0.00 0.00 78 986.5
20260507073142 63 225 3.5 5.2 0.00 0.00 0.00 78 986.4
20260507072743 63 250 1.7 3.5 0.00 0.00 0.00 79 986.4
20260507072341 63 269 1.7 2.6 0.00 0.00 0.00 79 986.4
20260507071941 63 301 0.9 1.7 0.00 0.00 0.00 80 986.4
20260507071541 63 242 1.7 2.6 0.00 0.00 0.00 81 986.4
20260507071133 63 243 1.7 3.5 0.00 0.00 0.00 81 986.4
20260507070732 63 258 0.9 3.5 0.00 0.00 0.00 81 986.3
20260507070330 63 253 2.6 5.2 0.00 0.00 0.00 81 986.3
20260507065929 63 206 0.9 5.2 0.00 0.00 0.00 82 986.3
20260507065529 63 264 0.9 1.7 0.00 0.00 0.00 83 986.2
20260507065128 63 284 0.9 2.6 0.00 0.00 0.00 84 986.3
20260507064728 63 30 0.9 1.7 0.00 0.00 0.00 85 986.2
20260507064326 62 47 1.7 1.7 0.00 0.00 0.00 85 986.2
20260507063926 62 47 1.7 2.6 0.00 0.00 0.00 86 986.2
20260507063526 62 236 0.9 0.9 0.00 0.00 0.00 86 986.2
20260507063126 61 332 1.7 3.5 0.00 0.00 0.00 87 986.2
20260507062726 61 41 1.7 2.6 0.00 0.00 0.00 89 986.2
20260507062324 61 296 0.9 1.7 0.00 0.00 0.00 89 986.2
20260507061921 61 273 0.9 1.7 0.00 0.00 0.00 90 986.2
20260507061521 61 219 0.9 0.9 0.00 0.00 0.00 91 986.1
20260507061121 60 196 1.7 2.6 0.00 0.00 0.00 92 986.0
20260507060721 60 196 2.6 4.3 0.00 0.00 0.00 93 986.1
20260507060319 60 219 1.7 3.5 0.00 0.00 0.00 94 986.1
20260507055919 60 207 2.6 4.3 0.00 0.00 0.00 94 986.0
20260507055518 60 231 2.6 4.3 0.00 0.00 0.00 96 986.0
20260507055118 60 210 1.7 3.5 0.00 0.00 0.00 97 986.0
20260507054718 60 217 0.9 2.6 0.00 0.00 0.00 97 986.0
20260507054316 60 226 1.7 2.6 0.00 0.00 0.00 97 985.9